| time (UTC) | temp C | wind direction | speed KPH | gust KPH | rain 1hr cm | rain 24hr cm | rain mn cm | humidity % | barometer mb |
| 20260508044304 | 13 | 145 | 3.2 | 9.7 | 0.00 | 0.00 | 0.00 | 55 | 1014.8 |
| 20260508043804 | 12 | 145 | 0.0 | 4.8 | 0.00 | 0.00 | 0.00 | 55 | 1014.8 |
| 20260508043304 | 12 | 150 | 0.0 | 0.0 | 0.00 | 0.00 | 0.00 | 55 | 1014.8 |
| 20260508042804 | 12 | 167 | 0.0 | 0.0 | 0.00 | 0.00 | 0.00 | 55 | 1014.8 |
| 20260508042306 | 13 | 167 | 0.0 | 0.0 | 0.00 | 0.00 | 0.00 | 55 | 1014.8 |
| 20260508041804 | 13 | 167 | 0.0 | 0.0 | 0.00 | 0.00 | 0.00 | 55 | 1014.8 |
| 20260508041304 | 13 | 145 | 0.0 | 0.0 | 0.00 | 0.00 | 0.00 | 55 | 1014.8 |
| 20260508040804 | 13 | 145 | 0.0 | 0.0 | 0.00 | 0.00 | 0.00 | 54 | 1014.8 |
| 20260508040303 | 13 | 145 | 0.0 | 0.0 | 0.00 | 0.00 | 0.00 | 54 | 1014.8 |
| 20260508034804 | 13 | 145 | 0.0 | 0.0 | 0.00 | 0.00 | 0.00 | 53 | 1014.9 |
| 20260508034303 | 13 | 145 | 0.0 | 0.0 | 0.00 | 0.00 | 0.00 | 53 | 1014.9 |
| 20260508033803 | 13 | 145 | 0.0 | 0.0 | 0.00 | 0.00 | 0.00 | 53 | 1014.9 |
| 20260508033303 | 13 | 145 | 0.0 | 0.0 | 0.00 | 0.00 | 0.00 | 53 | 1014.9 |
| 20260508032803 | 13 | 145 | 0.0 | 0.0 | 0.00 | 0.00 | 0.00 | 52 | 1014.8 |
| 20260508032306 | 13 | 145 | 0.0 | 3.2 | 0.00 | 0.00 | 0.00 | 52 | 1014.8 |
| 20260508031804 | 13 | 145 | 0.0 | 3.2 | 0.00 | 0.00 | 0.00 | 52 | 1014.8 |
| 20260508031303 | 13 | 145 | 0.0 | 0.0 | 0.00 | 0.00 | 0.00 | 52 | 1014.8 |
| 20260508030803 | 14 | 145 | 0.0 | 3.2 | 0.00 | 0.00 | 0.00 | 51 | 1014.7 |
| 20260508030304 | 14 | 145 | 0.0 | 3.2 | 0.00 | 0.00 | 0.00 | 50 | 1014.7 |
| 20260508025804 | 14 | 145 | 0.0 | 0.0 | 0.00 | 0.00 | 0.00 | 50 | 1014.7 |
| 20260508025306 | 14 | 145 | 0.0 | 0.0 | 0.00 | 0.00 | 0.00 | 49 | 1014.7 |
| 20260508024804 | 14 | 145 | 0.0 | 0.0 | 0.00 | 0.00 | 0.00 | 49 | 1014.8 |
| 20260508024303 | 14 | 145 | 0.0 | 0.0 | 0.00 | 0.00 | 0.00 | 49 | 1014.8 |
| 20260508023804 | 15 | 145 | 0.0 | 0.0 | 0.00 | 0.00 | 0.00 | 48 | 1014.8 |
| 20260508022804 | 15 | 145 | 0.0 | 0.0 | 0.00 | 0.00 | 0.00 | 46 | 1014.7 |
| 20260508022306 | 15 | 145 | 0.0 | 0.0 | 0.00 | 0.00 | 0.00 | 46 | 1014.7 |
| 20260508021804 | 15 | 145 | 0.0 | 0.0 | 0.00 | 0.00 | 0.00 | 45 | 1014.7 |
| 20260508021304 | 15 | 145 | 0.0 | 0.0 | 0.00 | 0.00 | 0.00 | 44 | 1014.7 |
| 20260508020304 | 15 | 145 | 0.0 | 0.0 | 0.00 | 0.00 | 0.00 | 44 | 1014.4 |
| 20260508015803 | 16 | 145 | 0.0 | 0.0 | 0.00 | 0.00 | 0.00 | 43 | 1014.4 |
| 20260508015305 | 16 | 155 | 0.0 | 0.0 | 0.00 | 0.00 | 0.00 | 42 | 1014.4 |
| 20260508014804 | 16 | 190 | 0.0 | 0.0 | 0.00 | 0.00 | 0.00 | 41 | 1014.2 |
| 20260508014303 | 16 | 190 | 0.0 | 0.0 | 0.00 | 0.00 | 0.00 | 41 | 1014.2 |
| 20260508013804 | 16 | 190 | 0.0 | 0.0 | 0.00 | 0.00 | 0.00 | 40 | 1014.2 |
| 20260508013304 | 16 | 190 | 0.0 | 0.0 | 0.00 | 0.00 | 0.00 | 39 | 1014.2 |
| 20260508012803 | 16 | 190 | 0.0 | 0.0 | 0.00 | 0.00 | 0.00 | 39 | 1014.0 |
| 20260508012307 | 17 | 190 | 0.0 | 0.0 | 0.00 | 0.00 | 0.00 | 38 | 1014.0 |
| 20260508011304 | 17 | 190 | 0.0 | 0.0 | 0.00 | 0.00 | 0.00 | 37 | 1014.0 |
| 20260508010803 | 17 | 190 | 0.0 | 0.0 | 0.00 | 0.00 | 0.00 | 37 | 1013.7 |
| 20260508010304 | 17 | 190 | 0.0 | 0.0 | 0.00 | 0.00 | 0.00 | 37 | 1013.7 |
| 20260508005803 | 18 | 190 | 0.0 | 0.0 | 0.00 | 0.00 | 0.00 | 36 | 1013.7 |
| 20260508005305 | 18 | 145 | 0.0 | 0.0 | 0.00 | 0.00 | 0.00 | 36 | 1013.7 |
| 20260508004803 | 19 | 145 | 1.6 | 4.8 | 0.00 | 0.00 | 0.00 | 35 | 1013.6 |
| 20260508004304 | 19 | 250 | 3.2 | 4.8 | 0.00 | 0.00 | 0.00 | 35 | 1013.6 |
| 20260508003305 | 19 | 285 | 3.2 | 4.8 | 0.00 | 0.00 | 0.00 | 34 | 1013.6 |
| 20260508002804 | 19 | 145 | 3.2 | 8.0 | 0.00 | 0.00 | 0.00 | 35 | 1013.8 |
| 20260508002306 | 18 | 158 | 3.2 | 12.9 | 0.00 | 0.00 | 0.00 | 34 | 1013.8 |
| 20260508001803 | 18 | 123 | 3.2 | 12.9 | 0.00 | 0.00 | 0.00 | 34 | 1013.8 |
| 20260508000804 | 19 | 167 | 9.7 | 14.5 | 0.00 | 0.00 | 0.00 | 33 | 1013.8 |
| 20260508000305 | 19 | 145 | 8.0 | 16.1 | 0.00 | 0.00 | 0.00 | 32 | 1013.8 |
| 20260507235306 | 19 | 150 | 6.4 | 9.7 | 0.00 | 0.00 | 0.00 | 33 | 1013.8 |
| 20260507234804 | 19 | 145 | 9.7 | 9.7 | 0.00 | 0.00 | 0.00 | 32 | 1013.3 |
| 20260507234304 | 19 | 162 | 9.7 | 19.3 | 0.00 | 0.00 | 0.00 | 32 | 1013.3 |
| 20260507233804 | 20 | 167 | 9.7 | 9.7 | 0.00 | 0.00 | 0.00 | 31 | 1013.3 |
| 20260507233304 | 20 | 157 | 11.3 | 19.3 | 0.00 | 0.00 | 0.00 | 31 | 1013.3 |
| 20260507232803 | 20 | 145 | 9.7 | 14.5 | 0.00 | 0.00 | 0.00 | 30 | 1013.2 |
| 20260507232306 | 20 | 126 | 9.7 | 19.3 | 0.00 | 0.00 | 0.00 | 30 | 1013.2 |
| 20260507231303 | 21 | 162 | 8.0 | 20.9 | 0.00 | 0.00 | 0.00 | 29 | 1013.2 |
| 20260507230804 | 22 | 145 | 9.7 | 12.9 | 0.00 | 0.00 | 0.00 | 28 | 1013.8 |
| 20260507230303 | 22 | 180 | 9.7 | 20.9 | 0.00 | 0.00 | 0.00 | 28 | 1013.8 |
| 20260507225306 | 22 | 167 | 9.7 | 16.1 | 0.00 | 0.00 | 0.00 | 27 | 1013.8 |
| 20260507223801 | 22 | 123 | 8.0 | 14.5 | 0.00 | 0.00 | 0.00 | 27 | 1013.8 |
| 20260507222802 | 22 | 167 | 11.3 | 14.5 | 0.00 | 0.00 | 0.00 | 29 | 1013.8 |
| 20260507222305 | 22 | 162 | 12.9 | 16.1 | 0.00 | 0.00 | 0.00 | 28 | 1013.8 |
| 20260507221801 | 22 | 145 | 12.9 | 24.1 | 0.00 | 0.00 | 0.00 | 29 | 1013.8 |
| 20260507221302 | 22 | 292 | 9.7 | 24.1 | 0.00 | 0.00 | 0.00 | 27 | 1013.8 |
| 20260507220802 | 22 | 167 | 8.0 | 20.9 | 0.00 | 0.00 | 0.00 | 27 | 1014.1 |
| 20260507220302 | 22 | 210 | 8.0 | 12.9 | 0.00 | 0.00 | 0.00 | 28 | 1014.1 |
| 20260507215801 | 22 | 325 | 9.7 | 35.4 | 0.00 | 0.00 | 0.00 | 29 | 1014.1 |
| 20260507214802 | 22 | 123 | 12.9 | 24.1 | 0.00 | 0.00 | 0.00 | 29 | 1014.0 |
| 20260507214301 | 22 | 207 | 11.3 | 22.5 | 0.00 | 0.00 | 0.00 | 29 | 1014.0 |
| 20260507213802 | 21 | 190 | 9.7 | 16.1 | 0.00 | 0.00 | 0.00 | 30 | 1014.0 |
| 20260507213302 | 21 | 145 | 11.3 | 27.4 | 0.00 | 0.00 | 0.00 | 30 | 1012.8 |
| 20260507212802 | 22 | 145 | 11.3 | 14.5 | 0.00 | 0.00 | 0.00 | 28 | 1013.3 |
| 20260507212306 | 22 | 112 | 9.7 | 27.4 | 0.00 | 0.00 | 0.00 | 29 | 1013.3 |
| 20260507211802 | 22 | 280 | 8.0 | 12.9 | 0.00 | 0.00 | 0.00 | 30 | 1013.3 |
| 20260507211302 | 21 | 145 | 9.7 | 14.5 | 0.00 | 0.00 | 0.00 | 30 | 1013.3 |
| 20260507210802 | 21 | 167 | 9.7 | 12.9 | 0.00 | 0.00 | 0.00 | 31 | 1013.6 |
| 20260507210302 | 22 | 145 | 11.3 | 24.1 | 0.00 | 0.00 | 0.00 | 31 | 1013.6 |
| 20260507205802 | 22 | 280 | 9.7 | 24.1 | 0.00 | 0.00 | 0.00 | 32 | 1013.6 |
| 20260507205302 | 21 | 179 | 8.0 | 20.9 | 0.00 | 0.00 | 0.00 | 32 | 1013.6 |
| 20260507204802 | 20 | 167 | 9.7 | 12.9 | 0.00 | 0.00 | 0.00 | 32 | 1013.8 |
| 20260507204301 | 20 | 4 | 9.7 | 20.9 | 0.00 | 0.00 | 0.00 | 32 | 1013.8 |
| 20260507203802 | 21 | 167 | 9.7 | 22.5 | 0.00 | 0.00 | 0.00 | 31 | 1013.8 |
| 20260507202801 | 20 | 213 | 11.3 | 27.4 | 0.00 | 0.00 | 0.00 | 32 | 1014.3 |
| 20260507202306 | 20 | 128 | 9.7 | 27.4 | 0.00 | 0.00 | 0.00 | 32 | 1014.3 |
| 20260507201802 | 21 | 123 | 11.3 | 12.9 | 0.00 | 0.00 | 0.00 | 31 | 1014.3 |
| 20260507201302 | 21 | 145 | 11.3 | 14.5 | 0.00 | 0.00 | 0.00 | 31 | 1014.3 |
| 20260507200802 | 21 | 145 | 9.7 | 32.2 | 0.00 | 0.00 | 0.00 | 31 | 1014.1 |
| 20260507195802 | 22 | 145 | 9.7 | 20.9 | 0.00 | 0.00 | 0.00 | 29 | 1014.1 |
| 20260507195305 | 22 | 145 | 8.0 | 19.3 | 0.00 | 0.00 | 0.00 | 29 | 1014.1 |
| 20260507194801 | 21 | 145 | 9.7 | 19.3 | 0.00 | 0.00 | 0.00 | 30 | 1014.3 |
| 20260507194302 | 21 | 145 | 9.7 | 24.1 | 0.00 | 0.00 | 0.00 | 31 | 1014.3 |
| 20260507193802 | 21 | 257 | 11.3 | 14.5 | 0.00 | 0.00 | 0.00 | 30 | 1014.3 |
| 20260507192801 | 21 | 145 | 9.7 | 29.0 | 0.00 | 0.00 | 0.00 | 31 | 1014.7 |
| 20260507192305 | 22 | 145 | 8.0 | 11.3 | 0.00 | 0.00 | 0.00 | 31 | 1014.7 |
| 20260507191802 | 20 | 10 | 9.7 | 19.3 | 0.00 | 0.00 | 0.00 | 31 | 1014.7 |
| 20260507191302 | 21 | 198 | 9.7 | 19.3 | 0.00 | 0.00 | 0.00 | 33 | 1014.7 |
| 20260507190802 | 21 | 145 | 11.3 | 12.9 | 0.00 | 0.00 | 0.00 | 32 | 1014.8 |
| 20260507190302 | 21 | 173 | 11.3 | 14.5 | 0.00 | 0.00 | 0.00 | 34 | 1014.8 |
| 20260507185802 | 20 | 145 | 9.7 | 19.3 | 0.00 | 0.00 | 0.00 | 33 | 1014.8 |
| 20260507185305 | 20 | 131 | 9.7 | 19.3 | 0.00 | 0.00 | 0.00 | 32 | 1014.8 |
| 20260507184802 | 20 | 325 | 8.0 | 19.3 | 0.00 | 0.00 | 0.00 | 33 | 1014.7 |
| 20260507184301 | 20 | 129 | 8.0 | 14.5 | 0.00 | 0.00 | 0.00 | 36 | 1014.7 |
| 20260507183802 | 20 | 145 | 9.7 | 19.3 | 0.00 | 0.00 | 0.00 | 37 | 1014.7 |
| 20260507183302 | 20 | 150 | 9.7 | 19.3 | 0.00 | 0.00 | 0.00 | 35 | 1014.7 |
| 20260507182802 | 20 | 280 | 9.7 | 16.1 | 0.00 | 0.00 | 0.00 | 36 | 1015.4 |
| 20260507182306 | 20 | 129 | 11.3 | 22.5 | 0.00 | 0.00 | 0.00 | 36 | 1015.4 |
| 20260507181802 | 19 | 167 | 11.3 | 22.5 | 0.00 | 0.00 | 0.00 | 35 | 1015.4 |
| 20260507181302 | 19 | 139 | 9.7 | 19.3 | 0.00 | 0.00 | 0.00 | 37 | 1015.4 |
| 20260507180801 | 18 | 33 | 9.7 | 12.9 | 0.00 | 0.00 | 0.00 | 37 | 1015.9 |
| 20260507180302 | 18 | 111 | 11.3 | 19.3 | 0.00 | 0.00 | 0.00 | 36 | 1015.9 |
| 20260507175802 | 18 | 145 | 8.0 | 22.5 | 0.00 | 0.00 | 0.00 | 37 | 1015.9 |
| 20260507175306 | 17 | 135 | 4.8 | 22.5 | 0.00 | 0.00 | 0.00 | 37 | 1015.9 |
| 20260507174302 | 17 | 340 | 11.3 | 19.3 | 0.00 | 0.00 | 0.00 | 36 | 1015.6 |
| 20260507173802 | 17 | 190 | 12.9 | 22.5 | 0.00 | 0.00 | 0.00 | 37 | 1015.6 |
| 20260507173301 | 17 | 161 | 12.9 | 33.8 | 0.00 | 0.00 | 0.00 | 37 | 1015.6 |
| 20260507172802 | 16 | 123 | 12.9 | 20.9 | 0.00 | 0.00 | 0.00 | 37 | 1016.2 |
| 20260507172306 | 17 | 145 | 9.7 | 53.1 | 0.00 | 0.00 | 0.00 | 37 | 1016.2 |
| 20260507171801 | 16 | 303 | 8.0 | 19.3 | 0.00 | 0.00 | 0.00 | 39 | 1016.2 |
| 20260507171302 | 16 | 145 | 9.7 | 14.5 | 0.00 | 0.00 | 0.00 | 39 | 1016.2 |
| 20260507170802 | 16 | 303 | 8.0 | 14.5 | 0.00 | 0.00 | 0.00 | 40 | 1016.5 |
| 20260507165801 | 16 | 167 | 8.0 | 14.5 | 0.00 | 0.00 | 0.00 | 40 | 1016.5 |
| 20260507165301 | 16 | 207 | 8.0 | 33.8 | 0.00 | 0.00 | 0.00 | 39 | 1016.5 |
| 20260507164802 | 16 | 123 | 8.0 | 33.8 | 0.00 | 0.00 | 0.00 | 40 | 1016.8 |
| 20260507163802 | 16 | 145 | 9.7 | 19.3 | 0.00 | 0.00 | 0.00 | 40 | 1016.8 |
| 20260507162801 | 16 | 303 | 4.8 | 12.9 | 0.00 | 0.00 | 0.00 | 41 | 1016.8 |
| 20260507162306 | 16 | 231 | 4.8 | 8.0 | 0.00 | 0.00 | 0.00 | 42 | 1016.8 |
| 20260507161801 | 15 | 257 | 8.0 | 12.9 | 0.00 | 0.00 | 0.00 | 40 | 1016.8 |
| 20260507161302 | 15 | 306 | 8.0 | 11.3 | 0.00 | 0.00 | 0.00 | 41 | 1016.8 |
| 20260507160302 | 15 | 145 | 8.0 | 16.1 | 0.00 | 0.00 | 0.00 | 42 | 1017.4 |
| 20260507155802 | 15 | 145 | 8.0 | 16.1 | 0.00 | 0.00 | 0.00 | 43 | 1017.4 |
| 20260507155305 | 15 | 284 | 8.0 | 20.9 | 0.00 | 0.00 | 0.00 | 43 | 1017.4 |
| 20260507154802 | 15 | 145 | 8.0 | 20.9 | 0.00 | 0.00 | 0.00 | 45 | 1017.3 |
| 20260507154302 | 15 | 167 | 8.0 | 19.3 | 0.00 | 0.00 | 0.00 | 46 | 1017.3 |
| 20260507153802 | 14 | 145 | 8.0 | 16.1 | 0.00 | 0.00 | 0.00 | 49 | 1017.3 |
| 20260507153303 | 14 | 128 | 4.8 | 14.5 | 0.00 | 0.00 | 0.00 | 51 | 1017.3 |
| 20260507152802 | 14 | 145 | 8.0 | 9.7 | 0.00 | 0.00 | 0.00 | 51 | 1017.7 |
| 20260507152305 | 14 | 145 | 8.0 | 19.3 | 0.00 | 0.00 | 0.00 | 51 | 1017.7 |
| 20260507151802 | 14 | 145 | 4.8 | 14.5 | 0.00 | 0.00 | 0.00 | 49 | 1017.7 |
| 20260507150802 | 13 | 167 | 4.8 | 12.9 | 0.00 | 0.00 | 0.00 | 53 | 1018.0 |
| 20260507150302 | 13 | 209 | 4.8 | 24.1 | 0.00 | 0.00 | 0.00 | 54 | 1018.0 |
| 20260507145802 | 13 | 145 | 4.8 | 24.1 | 0.00 | 0.00 | 0.00 | 54 | 1018.0 |
| 20260507145306 | 13 | 151 | 8.0 | 12.9 | 0.00 | 0.00 | 0.00 | 54 | 1018.0 |
| 20260507144802 | 13 | 325 | 6.4 | 12.9 | 0.00 | 0.00 | 0.00 | 55 | 1018.0 |
| 20260507144302 | 13 | 161 | 4.8 | 12.9 | 0.00 | 0.00 | 0.00 | 56 | 1018.0 |
| 20260507143802 | 13 | 145 | 4.8 | 12.9 | 0.00 | 0.00 | 0.00 | 55 | 1018.0 |
| 20260507143302 | 13 | 167 | 4.8 | 11.3 | 0.00 | 0.00 | 0.00 | 56 | 1018.0 |
| 20260507142802 | 12 | 190 | 4.8 | 8.0 | 0.00 | 0.00 | 0.00 | 56 | 1017.7 |
| 20260507142306 | 12 | 282 | 3.2 | 8.0 | 0.00 | 0.00 | 0.00 | 58 | 1017.7 |
| 20260507141302 | 12 | 145 | 3.2 | 8.0 | 0.00 | 0.00 | 0.00 | 61 | 1017.7 |
| 20260507140802 | 12 | 190 | 1.6 | 8.0 | 0.00 | 0.00 | 0.00 | 60 | 1017.6 |
| 20260507140302 | 12 | 161 | 1.6 | 8.0 | 0.00 | 0.00 | 0.00 | 62 | 1017.6 |
| 20260507135802 | 12 | 213 | 1.6 | 8.0 | 0.00 | 0.00 | 0.00 | 64 | 1017.6 |
| 20260507135306 | 11 | 166 | 1.6 | 8.0 | 0.00 | 0.00 | 0.00 | 64 | 1017.6 |
| 20260507134302 | 11 | 257 | 1.6 | 8.0 | 0.00 | 0.00 | 0.00 | 65 | 1017.9 |
| 20260507133803 | 11 | 167 | 1.6 | 0.0 | 0.00 | 0.00 | 0.00 | 67 | 1017.9 |
| 20260507133303 | 11 | 184 | 1.6 | 0.0 | 0.00 | 0.00 | 0.00 | 68 | 1017.9 |
| 20260507132802 | 10 | 145 | 0.0 | 3.2 | 0.00 | 0.00 | 0.00 | 71 | 1018.1 |
| 20260507132306 | 10 | 156 | 1.6 | 8.0 | 0.00 | 0.00 | 0.00 | 72 | 1018.1 |
| 20260507131302 | 10 | 201 | 1.6 | 4.8 | 0.00 | 0.00 | 0.00 | 78 | 1018.1 |
| 20260507130302 | 8 | 145 | 0.0 | 4.8 | 0.00 | 0.00 | 0.00 | 81 | 1018.1 |
| 20260507125804 | 8 | 303 | 0.0 | 0.0 | 0.00 | 0.00 | 0.00 | 82 | 1018.1 |
| 20260507125306 | 8 | 167 | 0.0 | 0.0 | 0.00 | 0.00 | 0.00 | 82 | 1018.1 |
| 20260507124802 | 8 | 190 | 1.6 | 0.0 | 0.00 | 0.00 | 0.00 | 82 | 1017.9 |
| 20260507124302 | 7 | 181 | 1.6 | 8.0 | 0.00 | 0.00 | 0.00 | 82 | 1017.9 |
| 20260507123803 | 7 | 190 | 1.6 | 8.0 | 0.00 | 0.00 | 0.00 | 83 | 1017.9 |
| 20260507123303 | 7 | 190 | 0.0 | 0.0 | 0.00 | 0.00 | 0.00 | 83 | 1017.9 |
| 20260507122803 | 7 | 167 | 0.0 | 0.0 | 0.00 | 0.00 | 0.00 | 84 | 1017.7 |
| 20260507122306 | 6 | 145 | 0.0 | 0.0 | 0.00 | 0.00 | 0.00 | 84 | 1017.7 |
| 20260507121802 | 6 | 145 | 0.0 | 0.0 | 0.00 | 0.00 | 0.00 | 85 | 1017.7 |
| 20260507120802 | 6 | 145 | 0.0 | 0.0 | 0.00 | 0.00 | 0.00 | 86 | 1017.8 |
| 20260507120302 | 6 | 167 | 0.0 | 0.0 | 0.00 | 0.00 | 0.00 | 86 | 1017.8 |
| 20260507115802 | 6 | 167 | 0.0 | 0.0 | 0.00 | 0.00 | 0.00 | 86 | 1017.8 |
| 20260507115306 | 6 | 167 | 0.0 | 0.0 | 0.00 | 0.00 | 0.00 | 86 | 1017.8 |
| 20260507113802 | 5 | 190 | 0.0 | 0.0 | 0.00 | 0.00 | 0.00 | 85 | 1017.3 |
| 20260507113302 | 5 | 347 | 0.0 | 0.0 | 0.00 | 0.00 | 0.00 | 86 | 1017.3 |
| 20260507112803 | 5 | 347 | 0.0 | 0.0 | 0.00 | 0.00 | 0.00 | 85 | 1017.3 |
| 20260507112306 | 5 | 167 | 0.0 | 0.0 | 0.00 | 0.00 | 0.00 | 85 | 1017.3 |
| 20260507111302 | 5 | 167 | 0.0 | 0.0 | 0.00 | 0.00 | 0.00 | 85 | 1017.3 |
| 20260507110803 | 5 | 303 | 0.0 | 0.0 | 0.00 | 0.00 | 0.00 | 85 | 1017.1 |
| 20260507110302 | 5 | 303 | 0.0 | 0.0 | 0.00 | 0.00 | 0.00 | 84 | 1017.1 |
| 20260507105803 | 5 | 303 | 0.0 | 0.0 | 0.00 | 0.00 | 0.00 | 84 | 1017.1 |
| 20260507105306 | 5 | 316 | 0.0 | 0.0 | 0.00 | 0.00 | 0.00 | 84 | 1017.1 |
| 20260507104802 | 5 | 167 | 0.0 | 0.0 | 0.00 | 0.00 | 0.00 | 83 | 1016.8 |
| 20260507103802 | 6 | 167 | 0.0 | 0.0 | 0.00 | 0.00 | 0.00 | 82 | 1016.8 |
| 20260507103302 | 6 | 167 | 0.0 | 0.0 | 0.00 | 0.00 | 0.00 | 82 | 1016.8 |
| 20260507102802 | 6 | 167 | 0.0 | 0.0 | 0.00 | 0.00 | 0.00 | 81 | 1017.1 |
| 20260507101802 | 6 | 145 | 0.0 | 0.0 | 0.00 | 0.00 | 0.00 | 81 | 1017.1 |
| 20260507101302 | 6 | 145 | 0.0 | 0.0 | 0.00 | 0.00 | 0.00 | 81 | 1017.1 |
| 20260507100802 | 6 | 145 | 0.0 | 0.0 | 0.00 | 0.00 | 0.00 | 81 | 1017.1 |
| 20260507100303 | 6 | 145 | 0.0 | 0.0 | 0.00 | 0.00 | 0.00 | 81 | 1017.1 |
| 20260507095802 | 6 | 145 | 0.0 | 0.0 | 0.00 | 0.00 | 0.00 | 81 | 1017.1 |
| 20260507095305 | 6 | 145 | 0.0 | 0.0 | 0.00 | 0.00 | 0.00 | 81 | 1017.1 |
| 20260507094802 | 6 | 145 | 0.0 | 0.0 | 0.00 | 0.00 | 0.00 | 82 | 1017.1 |
| 20260507094303 | 6 | 145 | 0.0 | 0.0 | 0.00 | 0.00 | 0.00 | 81 | 1017.1 |
| 20260507093803 | 6 | 145 | 0.0 | 0.0 | 0.00 | 0.00 | 0.00 | 82 | 1017.1 |
| 20260507093303 | 6 | 145 | 0.0 | 0.0 | 0.00 | 0.00 | 0.00 | 82 | 1017.1 |
| 20260507092802 | 6 | 145 | 0.0 | 0.0 | 0.00 | 0.00 | 0.00 | 82 | 1017.1 |
| 20260507092306 | 6 | 145 | 0.0 | 0.0 | 0.00 | 0.00 | 0.00 | 82 | 1017.1 |
| 20260507091803 | 6 | 145 | 0.0 | 0.0 | 0.00 | 0.00 | 0.00 | 82 | 1017.1 |
| 20260507091302 | 6 | 145 | 0.0 | 0.0 | 0.00 | 0.00 | 0.00 | 82 | 1017.1 |
| 20260507090802 | 6 | 145 | 0.0 | 0.0 | 0.00 | 0.00 | 0.00 | 81 | 1017.4 |
| 20260507090302 | 6 | 145 | 0.0 | 0.0 | 0.00 | 0.00 | 0.00 | 81 | 1017.4 |
| 20260507085803 | 6 | 145 | 0.0 | 0.0 | 0.00 | 0.00 | 0.00 | 80 | 1017.4 |
| 20260507085306 | 6 | 145 | 0.0 | 0.0 | 0.00 | 0.00 | 0.00 | 80 | 1017.4 |
| 20260507084303 | 6 | 145 | 0.0 | 0.0 | 0.00 | 0.00 | 0.00 | 79 | 1017.2 |
| 20260507083303 | 6 | 303 | 0.0 | 0.0 | 0.00 | 0.00 | 0.00 | 78 | 1017.2 |
| 20260507082802 | 6 | 303 | 0.0 | 0.0 | 0.00 | 0.00 | 0.00 | 78 | 1017.6 |
| 20260507082306 | 6 | 303 | 0.0 | 0.0 | 0.00 | 0.00 | 0.00 | 78 | 1017.6 |
| 20260507081802 | 6 | 303 | 0.0 | 0.0 | 0.00 | 0.00 | 0.00 | 77 | 1017.6 |
| 20260507081302 | 6 | 303 | 0.0 | 0.0 | 0.00 | 0.00 | 0.00 | 77 | 1017.6 |
| 20260507080802 | 6 | 303 | 0.0 | 0.0 | 0.00 | 0.00 | 0.00 | 76 | 1017.3 |
| 20260507080303 | 6 | 303 | 0.0 | 0.0 | 0.00 | 0.00 | 0.00 | 76 | 1017.3 |
| 20260507075802 | 6 | 303 | 0.0 | 0.0 | 0.00 | 0.00 | 0.00 | 75 | 1017.3 |
| 20260507075306 | 6 | 303 | 0.0 | 0.0 | 0.00 | 0.00 | 0.00 | 75 | 1017.3 |
| 20260507074302 | 6 | 303 | 0.0 | 0.0 | 0.00 | 0.00 | 0.00 | 74 | 1017.1 |
| 20260507073303 | 7 | 303 | 0.0 | 0.0 | 0.00 | 0.00 | 0.00 | 74 | 1017.1 |
| 20260507072802 | 7 | 303 | 0.0 | 0.0 | 0.00 | 0.00 | 0.00 | 73 | 1017.1 |
| 20260507072306 | 7 | 303 | 0.0 | 0.0 | 0.00 | 0.00 | 0.00 | 73 | 1017.1 |
| 20260507071802 | 7 | 303 | 0.0 | 0.0 | 0.00 | 0.00 | 0.00 | 73 | 1017.1 |
| 20260507071302 | 7 | 303 | 0.0 | 0.0 | 0.00 | 0.00 | 0.00 | 72 | 1017.1 |
| 20260507070803 | 7 | 303 | 0.0 | 0.0 | 0.00 | 0.00 | 0.00 | 72 | 1017.2 |
| 20260507070302 | 7 | 303 | 0.0 | 0.0 | 0.00 | 0.00 | 0.00 | 72 | 1017.2 |
| 20260507065803 | 7 | 303 | 0.0 | 0.0 | 0.00 | 0.00 | 0.00 | 71 | 1017.2 |
| 20260507065305 | 7 | 303 | 0.0 | 0.0 | 0.00 | 0.00 | 0.00 | 71 | 1017.2 |
| 20260507064802 | 7 | 303 | 0.0 | 0.0 | 0.00 | 0.00 | 0.00 | 71 | 1017.4 |
| 20260507064303 | 7 | 303 | 0.0 | 0.0 | 0.00 | 0.00 | 0.00 | 70 | 1017.4 |
| 20260507063803 | 7 | 303 | 0.0 | 0.0 | 0.00 | 0.00 | 0.00 | 69 | 1017.4 |
| 20260507063302 | 7 | 303 | 0.0 | 0.0 | 0.00 | 0.00 | 0.00 | 69 | 1017.4 |
| 20260507062306 | 7 | 303 | 0.0 | 0.0 | 0.00 | 0.00 | 0.00 | 69 | 1017.6 |